Location: Biltmore Gardens
(41.6070°N, 83.4666°W)
Time: 14:41:02
(UTC+00:00)

RESURS DK-1 - Pass Details

Date: 14 July 2020
Orbit: 555 x 562 km, 69.9° (Epoch: 12 August)

Event Time Altitude Azimuth Distance (km) Brightness Sun altitude
Rises 04:44:37 0° 334° (NNW) 2,753 7.2 -25.5°
Reaches altitude 10° 04:46:50 10° 333° (NNW) 1,854 6.0 -25.6°
Enters shadow 04:50:10 57° 326° (NW) 666 2.9 -25.7°
